Time[GMT],current_speed[cm/s](2m),current_direction[angular_degrees](2m),temperature[C](2m),current_u[cm/s](2m),current_v[cm/s](2m)
2009-09-23 17:00,14.96,125.0,16.98,12.25,-8.58
2009-09-23 18:00,17.01,110.2,17.01,15.96,-5.88
2009-09-23 19:00,16.42,105.0,17.11,15.87,-4.24
2009-09-23 20:00,30.50,105.7,17.14,29.37,-8.23
2009-09-23 21:00,33.73,105.7,17.04,32.48,-9.10
2009-09-23 22:00,35.78,97.9,17.14,35.44,-4.93
2009-09-23 23:00,33.73,93.7,17.23,33.66,-2.18
2009-09-24 00:00,29.04,82.4,17.23,28.78,3.82
2009-09-24 01:00,28.74,78.2,17.23,28.14,5.86
2009-09-24 02:00,22.29,71.5,17.20,21.14,7.06
2009-09-24 03:00,26.40,80.7,17.20,26.05,4.27
2009-09-24 04:00,25.52,88.4,17.08,25.51,0.70
2009-09-24 05:00,22.29,96.9,17.11,22.13,-2.66
2009-09-24 06:00,28.45,97.2,17.01,28.22,-3.57
2009-09-24 07:00,33.14,105.0,16.98,32.02,-8.55
2009-09-24 08:00,37.25,111.6,17.01,34.63,-13.73
2009-09-24 09:00,38.13,114.1,16.98,34.81,-15.56
2009-09-24 10:00,43.12,115.1,16.95,39.03,-18.32
2009-09-24 11:00,42.24,113.7,17.01,38.66,-17.00
2009-09-24 12:00,37.25,110.9,17.08,34.79,-13.30
2009-09-24 13:00,28.45,114.4,17.08,25.90,-11.77
2009-09-24 14:00,16.72,116.9,17.11,14.91,-7.57
2009-09-24 15:00,9.97,150.3,17.27,4.94,-8.66
2009-09-24 16:00,11.15,237.9,17.30,-9.44,-5.93
2009-09-24 17:00,2.93,54.3,17.27,2.38,1.71
2009-09-24 18:00,4.11,221.7,17.49,-2.73,-3.07
2009-09-24 19:00,12.32,42.4,17.39,8.30,9.10
2009-09-24 20:00,14.37,58.5,17.36,12.26,7.50
2009-09-24 21:00,23.17,55.7,17.33,19.15,13.05
2009-09-24 22:00,22.29,49.7,17.39,17.01,14.40
2009-09-24 23:00,26.40,51.2,17.30,20.56,16.56
2009-09-25 00:00,35.20,50.1,17.39,27.00,22.58
2009-09-25 01:00,36.37,49.4,17.39,27.61,23.67
2009-09-25 02:00,36.96,57.5,17.42,31.16,19.86
2009-09-25 03:00,32.26,64.5,17.42,29.12,13.88
2009-09-25 04:00,27.28,80.0,17.49,26.86,4.74
2009-09-25 05:00,23.46,90.5,17.52,23.46,-0.22
2009-09-25 06:00,22.00,115.5,17.46,19.85,-9.47
2009-09-25 07:00,26.10,132.7,17.23,19.18,-17.71
2009-09-25 08:00,24.64,117.3,17.27,21.90,-11.28
2009-09-25 09:00,31.68,125.3,17.11,25.84,-18.32
2009-09-25 10:00,29.92,118.3,16.92,26.34,-14.19
2009-09-25 11:00,34.90,127.1,16.82,27.84,-21.05
2009-09-25 12:00,28.74,122.2,16.70,24.33,-15.31
2009-09-25 13:00,25.81,137.3,16.67,17.50,-18.97
2009-09-25 14:00,29.62,167.5,16.67,6.39,-28.93
2009-09-25 15:00,31.09,211.8,16.57,-16.40,-26.41
2009-09-25 16:00,24.64,232.2,16.51,-19.48,-15.09
2009-09-25 17:00,13.20,224.8,16.54,-9.31,-9.36
2009-09-25 18:00,5.28,199.2,16.54,-1.73,-4.99
2009-09-25 19:00,10.85,326.5,16.57,-6.00,9.05
2009-09-25 20:00,6.16,340.5,16.54,-2.05,5.81
2009-09-25 21:00,5.87,51.9,16.54,4.61,3.62
2009-09-25 22:00,12.61,78.9,16.51,12.38,2.42
2009-09-25 23:00,17.60,97.2,16.41,17.46,-2.21
2009-09-26 00:00,13.79,81.0,16.29,13.62,2.15
2009-09-26 01:00,20.53,87.7,16.26,20.51,0.82
2009-09-26 02:00,15.25,88.1,16.16,15.24,0.51
2009-09-26 03:00,9.68,78.2,16.13,9.48,1.97
2009-09-26 04:00,14.66,77.9,16.10,14.34,3.08
2009-09-26 05:00,9.39,87.7,16.07,9.38,0.37
2009-09-26 06:00,12.61,80.7,16.00,12.45,2.04
2009-09-26 07:00,23.46,91.2,15.91,23.46,-0.51
2009-09-26 08:00,12.03,113.7,15.94,11.01,-4.84
2009-09-26 09:00,16.72,139.4,15.94,10.88,-12.69
2009-09-26 10:00,21.12,109.5,15.94,19.90,-7.06
2009-09-26 11:00,19.65,118.3,15.94,17.30,-9.32
2009-09-26 12:00,17.89,123.2,16.00,14.97,-9.81
2009-09-26 13:00,21.70,102.8,16.10,21.16,-4.82
2009-09-26 14:00,18.77,114.8,16.19,17.04,-7.87
2009-09-26 15:00,4.99,142.2,16.29,3.05,-3.94
2009-09-26 16:00,4.69,99.0,16.41,4.64,-0.73
2009-09-26 17:00,5.28,77.2,16.54,5.15,1.17
2009-09-26 18:00,8.80,84.2,16.60,8.75,0.89
2009-09-26 19:00,16.13,88.8,16.60,16.13,0.34
2009-09-26 20:00,14.37,78.6,16.67,14.09,2.85
2009-09-26 21:00,17.89,91.6,16.57,17.88,-0.50
2009-09-26 22:00,17.60,99.7,16.51,17.35,-2.96
2009-09-26 23:00,26.10,89.8,16.44,26.10,0.08
2009-09-27 00:00,29.04,83.2,16.38,28.83,3.46
2009-09-27 01:00,36.08,83.9,16.38,35.87,3.86
2009-09-27 02:00,36.66,79.6,16.32,36.06,6.60
2009-09-27 03:00,42.82,77.9,16.26,41.87,8.99
2009-09-27 04:00,38.13,79.6,16.16,37.51,6.86
2009-09-27 05:00,35.20,83.2,16.10,34.94,4.20
2009-09-27 06:00,33.44,85.6,16.04,33.34,2.56
2009-09-27 07:00,22.88,88.4,16.00,22.87,0.63
2009-09-27 08:00,30.80,89.8,15.97,30.80,0.09
2009-09-27 09:00,22.88,70.1,15.94,21.52,7.77
2009-09-27 10:00,19.94,80.3,15.94,19.66,3.35
2009-09-27 11:00,25.81,65.9,15.91,23.56,10.53
2009-09-27 12:00,22.88,69.1,15.91,21.37,8.17
2009-09-27 13:00,29.33,62.4,15.91,25.99,13.59
2009-09-27 14:00,25.22,65.9,15.91,23.03,10.29
2009-09-27 15:00,29.33,44.8,15.91,20.68,20.80
2009-09-27 16:00,22.58,45.2,15.88,16.02,15.92
2009-09-27 17:00,22.58,26.2,15.78,9.97,20.27
2009-09-27 18:00,28.16,48.3,15.75,21.04,18.72
2009-09-27 19:00,28.45,46.2,15.69,20.55,19.68
2009-09-27 20:00,22.29,36.7,15.63,13.33,17.86
2009-09-27 21:00,17.60,12.5,15.50,3.80,17.18
2009-09-27 22:00,8.21,354.5,15.47,-0.78,8.18
2009-09-27 23:00,16.72,71.2,15.47,15.83,5.39
2009-09-28 00:00,17.60,35.7,15.53,10.27,14.29
2009-09-28 01:00,23.76,49.0,15.53,17.94,15.57
2009-09-28 02:00,22.58,59.9,15.53,19.55,11.31
2009-09-28 03:00,28.74,59.2,15.56,24.70,14.70
2009-09-28 04:00,26.40,69.1,15.56,24.66,9.42
2009-09-28 05:00,22.29,92.3,15.63,22.27,-0.89
2009-09-28 06:00,16.72,117.3,15.66,14.86,-7.66
2009-09-28 07:00,19.94,108.8,15.78,18.88,-6.43
2009-09-28 08:00,16.42,106.4,15.78,15.76,-4.63
2009-09-28 09:00,13.20,117.6,15.85,11.70,-6.12
2009-09-28 10:00,9.68,121.8,15.85,8.22,-5.10
2009-09-28 11:00,19.06,106.0,15.85,18.33,-5.26
2009-09-28 12:00,16.72,101.1,15.85,16.41,-3.21
2009-09-28 13:00,24.64,99.3,15.91,24.31,-3.99
2009-09-28 14:00,24.93,94.1,16.00,24.87,-1.76
2009-09-28 15:00,21.12,86.0,16.10,21.07,1.49
2009-09-28 16:00,22.58,75.1,16.22,21.82,5.82
2009-09-28 17:00,19.36,67.3,16.35,17.86,7.46
2009-09-28 18:00,18.48,73.7,16.48,17.73,5.20
2009-09-28 19:00,13.49,75.4,16.60,13.06,3.40
2009-09-28 20:00,15.54,63.5,16.60,13.91,6.95
2009-09-28 21:00,18.77,43.4,16.48,12.90,13.63
2009-09-28 22:00,24.34,44.1,16.41,16.95,17.48
2009-09-28 23:00,27.28,43.1,16.35,18.63,19.93
2009-09-29 00:00,29.62,51.9,16.29,23.30,18.30
2009-09-29 01:00,32.56,69.1,16.29,30.41,11.62
2009-09-29 02:00,31.97,63.1,16.32,28.51,14.46
2009-09-29 03:00,39.30,78.2,16.35,38.48,8.02
2009-09-29 04:00,35.49,86.3,16.35,35.42,2.28
2009-09-29 05:00,36.96,90.9,16.38,36.95,-0.57
2009-09-29 06:00,30.50,100.7,16.35,29.97,-5.68
2009-09-29 07:00,20.82,107.1,16.32,19.91,-6.11
2009-09-29 08:00,14.96,78.9,16.32,14.68,2.87
2009-09-29 09:00,11.15,89.1,16.32,11.14,0.17
2009-09-29 10:00,12.32,59.2,16.29,10.59,6.30
2009-09-29 11:00,14.66,68.7,16.29,13.67,5.32
2009-09-29 12:00,17.89,62.4,16.29,15.86,8.29
2009-09-29 13:00,24.64,86.3,16.29,24.59,1.58
2009-09-29 14:00,22.88,83.9,16.35,22.75,2.45
2009-09-29 15:00,30.21,82.4,16.44,29.95,3.97
2009-09-29 16:00,37.25,82.1,16.44,36.90,5.12
2009-09-29 17:00,40.48,80.7,16.41,39.94,6.55
2009-09-29 18:00,34.02,81.0,16.54,33.61,5.30
2009-09-29 19:00,29.33,82.8,16.54,29.10,3.68
2009-09-29 20:00,26.69,90.9,16.51,26.69,-0.41
2009-09-29 21:00,24.93,92.3,16.48,24.91,-1.00
2009-09-29 22:00,20.24,95.5,16.38,20.15,-1.92
2009-09-29 23:00,17.01,101.4,16.38,16.67,-3.37
2009-09-30 00:00,20.82,92.3,16.32,20.81,-0.83
2009-09-30 01:00,27.28,87.4,16.29,27.25,1.25
2009-09-30 02:00,34.02,81.7,16.26,33.67,4.89
2009-09-30 03:00,42.53,83.5,16.19,42.26,4.81
2009-09-30 04:00,37.84,74.4,16.13,36.44,10.20
2009-09-30 05:00,45.75,76.8,16.10,44.55,10.43
2009-09-30 06:00,43.12,78.9,16.04,42.31,8.28
2009-09-30 07:00,35.78,83.9,15.97,35.58,3.83
2009-09-30 08:00,30.80,88.1,15.97,30.78,1.04
2009-09-30 09:00,24.34,89.5,15.94,24.34,0.22
2009-09-30 10:00,20.53,103.5,15.88,19.96,-4.81
2009-09-30 11:00,20.24,96.9,15.85,20.09,-2.42
2009-09-30 12:00,10.56,76.5,15.85,10.27,2.47
2009-09-30 13:00,18.18,66.3,15.88,16.65,7.32
2009-09-30 14:00,20.24,55.4,15.88,16.65,11.50
2009-09-30 15:00,25.52,68.7,15.97,23.78,9.25
2009-09-30 16:00,30.80,68.0,16.04,28.56,11.52
2009-09-30 17:00,31.38,72.6,15.97,29.95,9.38
2009-09-30 18:00,35.78,67.3,16.07,33.02,13.79
2009-09-30 19:00,30.21,56.1,16.16,25.07,16.86
2009-09-30 20:00,20.53,62.8,16.13,18.25,9.40
2009-09-30 21:00,18.77,78.9,16.04,18.42,3.60
2009-09-30 22:00,15.25,72.6,16.04,14.55,4.56
2009-09-30 23:00,10.85,103.9,15.97,10.53,-2.61
2009-10-01 00:00,10.85,100.7,15.91,10.66,-2.02
2009-10-01 01:00,15.25,97.9,15.91,15.11,-2.10
2009-10-01 02:00,21.12,77.2,15.91,20.59,4.69
2009-10-01 03:00,24.64,78.9,15.78,24.18,4.73
2009-10-01 04:00,23.46,72.6,15.72,22.39,7.02
2009-10-01 05:00,34.02,73.3,15.63,32.59,9.77
2009-10-01 06:00,33.73,79.6,15.59,33.18,6.07
2009-10-01 07:00,31.68,79.6,15.53,31.16,5.70
2009-10-01 08:00,25.81,84.2,15.53,25.68,2.61
2009-10-01 09:00,16.72,63.1,15.53,14.91,7.56
2009-10-01 10:00,8.21,52.6,15.50,6.52,4.99
2009-10-01 11:00,9.97,12.1,15.53,2.10,9.75
2009-10-01 12:00,20.24,51.9,15.50,15.92,12.50
2009-10-01 13:00,23.76,63.5,15.50,21.25,10.61
2009-10-01 14:00,33.44,60.6,15.56,29.14,16.39
2009-10-01 15:00,41.36,58.2,15.69,35.14,21.80
2009-10-01 16:00,36.08,71.2,15.75,34.15,11.63
2009-10-01 17:00,35.49,82.1,15.53,35.15,4.88
2009-10-01 18:00,38.72,82.1,15.44,38.35,5.32
2009-10-01 19:00,31.97,77.2,15.34,31.17,7.10
2009-10-01 20:00,36.96,84.2,15.15,36.77,3.73
2009-10-01 21:00,23.76,105.7,14.93,22.88,-6.41
2009-10-01 22:00,7.04,192.1,14.81,-1.48,-6.88
2009-10-01 23:00,9.68,309.2,14.93,-7.50,6.12
2009-10-02 00:00,12.91,21.3,15.03,4.68,12.03
2009-10-02 01:00,16.42,33.6,14.93,9.08,13.68
2009-10-02 02:00,32.26,52.9,15.06,25.74,19.46
2009-10-02 03:00,41.65,64.5,15.22,37.60,17.92
2009-10-02 04:00,43.41,73.7,15.37,41.65,12.21
2009-10-02 05:00,45.46,76.1,15.25,44.13,10.91
2009-10-02 06:00,54.55,76.5,15.19,53.04,12.76
2009-10-02 07:00,51.62,82.4,15.22,51.17,6.78
2009-10-02 08:00,46.63,78.2,15.34,45.65,9.51
2009-10-02 09:00,26.98,92.3,15.22,26.96,-1.08
2009-10-02 10:00,13.79,88.1,15.09,13.78,0.46
2009-10-02 11:00,10.56,56.1,15.12,8.76,5.89
2009-10-02 12:00,18.18,28.3,15.28,8.62,16.01
2009-10-02 13:00,21.70,41.3,15.41,14.33,16.30
2009-10-02 14:00,31.38,58.5,15.47,26.77,16.38
2009-10-02 15:00,38.13,62.4,15.53,33.79,17.66
2009-10-02 16:00,51.03,71.5,15.56,48.41,16.15
2009-10-02 17:00,47.81,81.4,15.66,47.27,7.15
2009-10-02 18:00,48.98,86.7,15.72,48.90,2.85
2009-10-02 19:00,36.96,79.3,15.75,36.31,6.87
2009-10-02 20:00,28.45,77.5,15.75,27.78,6.15
2009-10-02 21:00,14.66,61.0,15.78,12.83,7.11
2009-10-02 22:00,12.32,343.0,15.75,-3.60,11.78
2009-10-02 23:00,18.77,341.9,15.78,-5.82,17.85
2009-10-03 00:00,23.76,356.3,15.72,-1.53,23.71
2009-10-03 01:00,26.98,22.7,15.72,10.40,24.90
2009-10-03 02:00,28.16,35.7,15.69,16.42,22.87
2009-10-03 03:00,42.82,53.6,15.66,34.47,25.40
2009-10-03 04:00,54.26,59.6,15.63,46.80,27.46
2009-10-03 05:00,51.62,62.8,15.69,45.90,23.63
2009-10-03 06:00,53.67,72.3,15.91,51.12,16.36
2009-10-03 07:00,42.82,64.2,15.91,38.54,18.66
2009-10-03 08:00,36.08,54.3,15.78,29.30,21.04
2009-10-03 09:00,20.24,42.0,15.66,13.55,15.04
2009-10-03 10:00,18.77,345.4,15.72,-4.73,18.17
2009-10-03 11:00,27.86,336.3,15.88,-11.20,25.51
2009-10-03 12:00,41.06,351.7,15.94,-5.90,40.64
2009-10-03 13:00,40.48,356.0,15.85,-2.86,40.37
2009-10-03 14:00,45.17,4.4,15.78,3.46,45.04
2009-10-03 15:00,46.63,16.3,15.78,13.13,44.75
2009-10-03 16:00,63.06,24.1,15.78,25.73,57.57
2009-10-03 17:00,54.55,39.9,15.72,35.00,41.85
2009-10-03 18:00,54.26,50.5,15.72,41.84,34.55
2009-10-03 19:00,56.31,54.0,15.66,45.54,33.13
2009-10-03 20:00,47.81,53.6,15.59,38.49,28.36
2009-10-03 21:00,27.86,56.4,15.41,23.22,15.41
2009-10-03 22:00,18.18,20.2,15.28,6.28,17.06
2009-10-03 23:00,19.65,329.3,15.22,-10.04,16.89
2009-10-04 00:00,36.08,325.8,15.15,-20.30,29.82
2009-10-04 01:00,35.20,0.9,15.31,0.54,35.19
2009-10-04 02:00,45.75,6.5,15.53,5.18,45.46
2009-10-04 03:00,38.72,19.5,15.47,12.93,36.49
2009-10-04 04:00,46.93,35.7,15.31,27.37,38.12
2009-10-04 05:00,47.51,47.6,15.06,35.11,32.01
2009-10-04 06:00,47.81,52.9,14.93,38.14,28.83
2009-10-04 07:00,43.99,62.4,14.90,38.99,20.38
2009-10-04 08:00,36.66,62.8,14.75,32.60,16.78
2009-10-04 09:00,18.18,65.6,14.68,16.56,7.52
2009-10-04 10:00,2.93,123.9,14.68,2.43,-1.64
2009-10-04 11:00,12.61,304.3,14.68,-10.42,7.11
2009-10-04 12:00,17.60,343.3,14.62,-5.05,16.86
2009-10-04 13:00,27.28,346.1,14.78,-6.55,26.48
2009-10-04 14:00,26.10,357.0,15.03,-1.36,26.07
2009-10-04 15:00,24.05,22.0,15.28,9.00,22.30
2009-10-04 16:00,26.69,33.2,15.25,14.62,22.33
2009-10-04 17:00,35.49,49.7,15.19,27.09,22.93
2009-10-04 18:00,36.37,57.1,15.22,30.55,19.74
2009-10-04 19:00,37.25,48.3,15.19,27.83,24.76
2009-10-04 20:00,33.73,64.5,14.68,30.45,14.51
2009-10-04 21:00,22.29,66.3,14.71,20.41,8.97
2009-10-04 22:00,18.48,39.9,14.87,11.85,14.17
2009-10-04 23:00,20.24,10.0,15.22,3.52,19.93
2009-10-05 00:00,26.40,4.0,15.50,1.86,26.33
2009-10-05 01:00,28.45,14.2,15.56,7.00,27.58
2009-10-05 02:00,33.14,13.2,15.72,7.56,32.27
2009-10-05 03:00,37.25,30.4,15.72,18.86,32.12
2009-10-05 04:00,39.60,44.8,15.56,27.91,28.08
2009-10-05 05:00,51.91,51.2,15.72,40.43,32.56
2009-10-05 06:00,51.03,64.2,15.59,45.93,22.24
2009-10-05 07:00,59.54,72.3,15.85,56.71,18.15
2009-10-05 08:00,59.83,78.6,15.63,58.65,11.85
2009-10-05 09:00,53.38,81.0,15.41,52.73,8.31
2009-10-05 10:00,37.25,94.4,15.06,37.14,-2.86
2009-10-05 11:00,15.84,99.0,14.78,15.64,-2.47
2009-10-05 12:00,5.28,121.8,14.68,4.49,-2.78
2009-10-05 13:00,10.56,338.8,14.68,-3.82,9.84
2009-10-05 14:00,17.89,1.9,14.97,0.60,17.88
2009-10-05 15:00,17.30,19.5,15.31,5.78,16.31
2009-10-05 16:00,26.10,42.0,15.50,17.47,19.39
2009-10-05 17:00,39.30,55.4,15.59,32.34,22.33
2009-10-05 18:00,39.01,66.3,15.66,35.71,15.70
2009-10-05 19:00,49.27,71.2,15.59,46.64,15.88
2009-10-05 20:00,57.19,83.5,15.25,56.83,6.47
2009-10-05 21:00,51.33,79.6,15.09,50.49,9.23
2009-10-05 22:00,38.13,87.7,14.81,38.10,1.52
2009-10-05 23:00,28.16,91.2,14.56,28.15,-0.61
2009-10-06 00:00,13.49,89.5,14.46,13.49,0.12
2009-10-06 01:00,9.68,35.3,14.40,5.60,7.90
2009-10-06 02:00,14.66,337.0,14.59,-5.73,13.50
2009-10-06 03:00,20.82,44.5,14.71,14.59,14.86
2009-10-06 04:00,23.17,55.4,14.75,19.07,13.17
2009-10-06 05:00,33.73,65.6,14.75,30.71,13.95
2009-10-06 06:00,46.93,73.7,14.62,45.03,13.20
2009-10-06 07:00,53.38,76.5,14.62,51.90,12.49
2009-10-06 08:00,53.38,86.3,14.65,53.27,3.43
2009-10-06 09:00,53.67,88.8,14.40,53.66,1.15
2009-10-06 10:00,37.84,100.7,14.15,37.17,-7.05
2009-10-06 11:00,36.08,113.7,13.87,33.02,-14.52
2009-10-06 12:00,23.46,148.9,13.84,12.12,-20.09
2009-10-06 13:00,14.96,194.6,13.80,-3.77,-14.47
2009-10-06 14:00,10.85,183.7,13.74,-0.70,-10.83
2009-10-06 15:00,6.45,255.1,13.71,-6.24,-1.66
2009-10-06 16:00,9.68,307.5,13.84,-7.68,5.89
2009-10-06 17:00,15.25,32.9,13.99,8.28,12.81
2009-10-06 18:00,34.90,38.5,14.40,21.73,27.32
2009-10-06 19:00,47.81,55.0,14.71,39.17,27.41
2009-10-06 20:00,61.30,67.7,15.37,56.71,23.28
2009-10-06 21:00,63.06,71.5,15.41,59.82,19.96
2009-10-06 22:00,56.90,70.5,15.59,53.63,19.00
2009-10-06 23:00,40.48,73.3,15.56,38.77,11.63
2009-10-07 00:00,26.69,82.1,15.37,26.44,3.67
2009-10-07 01:00,19.65,72.3,15.41,18.72,5.99
2009-10-07 02:00,18.18,54.0,15.37,14.71,10.70
2009-10-07 03:00,33.44,55.4,15.47,27.51,19.00
2009-10-07 04:00,30.50,53.6,15.50,24.56,18.09
2009-10-07 05:00,39.89,67.0,15.50,36.71,15.60
2009-10-07 06:00,45.75,71.9,15.50,43.49,14.21
2009-10-07 07:00,46.34,72.3,15.47,44.14,14.13
2009-10-07 08:00,46.63,73.3,15.47,44.67,13.40
2009-10-07 09:00,43.12,75.1,15.47,41.66,11.11
2009-10-07 10:00,43.70,67.0,15.41,40.22,17.09
2009-10-07 11:00,29.04,57.1,15.41,24.39,15.76
2009-10-07 12:00,28.16,40.3,15.37,18.20,21.49
2009-10-07 13:00,33.14,7.9,15.31,4.56,32.83
2009-10-07 14:00,45.17,349.3,15.37,-8.41,44.38
2009-10-07 15:00,34.90,19.5,15.41,11.66,32.90
2009-10-07 16:00,30.50,24.4,15.47,12.62,27.77
2009-10-07 17:00,39.89,54.0,15.50,32.26,23.46
2009-10-07 18:00,51.62,66.3,15.53,47.26,20.77
2009-10-07 19:00,48.69,76.8,15.31,47.41,11.10
2009-10-07 20:00,48.69,94.8,15.00,48.52,-4.04
2009-10-07 21:00,56.31,105.0,14.59,54.41,-14.53
2009-10-07 22:00,43.70,114.8,14.53,39.67,-18.33
2009-10-07 23:00,36.96,137.3,14.37,25.06,-27.16
2009-10-08 00:00,18.77,188.6,14.18,-2.82,-18.56
2009-10-08 01:00,16.13,227.7,14.06,-11.92,-10.87
2009-10-08 02:00,12.91,275.8,14.31,-12.84,1.31
2009-10-08 03:00,21.41,293.8,14.40,-19.60,8.63
2009-10-08 04:00,16.13,322.6,14.34,-9.80,12.81
2009-10-08 05:00,17.30,355.6,14.34,-1.33,17.25
2009-10-08 06:00,19.65,37.1,14.34,11.85,15.68
2009-10-08 07:00,30.50,51.9,14.31,23.99,18.84
2009-10-08 08:00,43.99,77.5,14.24,42.96,9.50
2009-10-08 09:00,43.70,86.7,14.27,43.63,2.54
2009-10-08 10:00,36.96,106.7,14.24,35.40,-10.62
2009-10-08 11:00,36.66,126.4,14.06,29.51,-21.76
2009-10-08 12:00,29.04,164.0,13.87,7.99,-27.91
2009-10-08 13:00,21.70,200.2,13.87,-7.51,-20.36
2009-10-08 14:00,20.53,208.7,13.87,-9.85,-18.01
2009-10-08 15:00,21.41,242.1,13.90,-18.92,-10.03
2009-10-08 16:00,17.30,231.9,13.90,-13.61,-10.68
2009-10-08 17:00,19.36,204.1,13.84,-7.90,-17.67
2009-10-08 18:00,6.75,226.6,13.80,-4.90,-4.63
2009-10-08 19:00,3.81,85.3,13.90,3.80,0.32
2009-10-08 20:00,13.49,72.6,14.12,12.87,4.03
2009-10-08 21:00,22.00,103.9,14.15,21.35,-5.28
2009-10-08 22:00,17.30,93.0,14.18,17.28,-0.90
2009-10-08 23:00,19.36,90.5,14.24,19.36,-0.18
2009-10-09 00:00,15.84,83.5,14.43,15.74,1.79
2009-10-09 01:00,8.21,62.1,14.40,7.25,3.85
2009-10-09 02:00,5.57,321.5,14.43,-3.47,4.36
2009-10-09 03:00,21.12,321.2,14.53,-13.24,16.45
2009-10-09 04:00,23.46,341.6,14.59,-7.42,22.26
2009-10-09 05:00,21.70,4.4,14.81,1.66,21.64
2009-10-09 06:00,16.42,23.0,14.78,6.42,15.12
2009-10-09 07:00,25.81,43.1,14.71,17.63,18.86
2009-10-09 08:00,21.70,67.3,14.75,20.03,8.37
2009-10-09 09:00,18.48,83.9,14.65,18.37,1.98
2009-10-09 10:00,19.65,107.4,14.56,18.75,-5.88
2009-10-09 11:00,14.37,110.9,14.53,13.42,-5.13
2009-10-09 12:00,11.44,112.7,14.49,10.55,-4.41
2009-10-09 13:00,11.15,192.9,14.46,-2.48,-10.87
2009-10-09 14:00,15.25,241.4,14.46,-13.39,-7.31
2009-10-09 15:00,29.62,278.6,14.56,-29.29,4.45
2009-10-09 16:00,33.14,305.4,14.65,-27.03,19.18
2009-10-09 17:00,28.45,326.1,14.78,-15.87,23.62
2009-10-09 18:00,21.12,1.6,14.71,0.58,21.11
2009-10-09 19:00,26.40,35.0,14.09,15.13,21.63
2009-10-09 20:00,22.58,46.9,13.90,16.50,15.42
2009-10-09 21:00,24.64,66.3,13.65,22.55,9.91
2009-10-09 22:00,22.29,94.8,13.58,22.21,-1.85
2009-10-09 23:00,19.36,124.3,14.02,15.99,-10.91
2009-10-10 00:00,11.44,153.5,14.21,5.11,-10.23
2009-10-10 01:00,11.73,240.7,14.34,-10.23,-5.75
2009-10-10 02:00,14.66,286.7,14.27,-14.04,4.22
2009-10-10 03:00,25.22,285.3,14.37,-24.33,6.66
2009-10-10 04:00,27.57,288.8,13.96,-26.09,8.90
2009-10-10 05:00,28.74,292.4,14.02,-26.58,10.93
2009-10-10 06:00,21.41,273.0,13.99,-21.38,1.13
2009-10-10 07:00,14.08,261.8,13.74,-13.93,-2.02
2009-10-10 08:00,15.54,233.6,14.09,-12.52,-9.22
2009-10-10 09:00,3.52,300.4,13.62,-3.03,1.78
2009-10-10 10:00,12.61,182.7,14.12,-0.58,-12.60
2009-10-10 11:00,9.09,152.1,14.15,4.26,-8.03
2009-10-10 12:00,7.63,148.2,14.15,4.02,-6.48
2009-10-10 13:00,22.58,203.4,14.27,-8.97,-20.73
2009-10-10 14:00,27.86,223.8,14.43,-19.28,-20.11
2009-10-10 15:00,32.85,233.6,14.62,-26.45,-19.48
2009-10-10 16:00,18.48,213.9,14.31,-10.32,-15.33
2009-10-10 17:00,23.17,217.8,14.21,-14.21,-18.30
2009-10-10 18:00,29.04,225.2,14.12,-20.60,-20.46
2009-10-10 19:00,33.14,216.4,13.90,-19.67,-26.67
2009-10-10 20:00,21.12,178.1,13.52,0.71,-21.11
2009-10-10 21:00,27.86,152.4,13.52,12.90,-24.70
2009-10-10 22:00,36.66,167.5,13.71,7.91,-35.80
2009-10-10 23:00,28.74,177.0,13.58,1.49,-28.70
2009-10-11 00:00,28.16,183.0,13.52,-1.48,-28.12
2009-10-11 01:00,23.76,198.8,13.40,-7.67,-22.49
2009-10-11 02:00,25.52,231.5,13.30,-19.98,-15.88
2009-10-11 03:00,29.92,257.2,13.43,-29.17,-6.63
2009-10-11 04:00,30.80,276.5,13.33,-30.60,3.50
2009-10-11 05:00,26.40,294.1,13.49,-24.09,10.78
2009-10-11 06:00,23.76,317.0,12.89,-16.21,17.37
2009-10-11 07:00,22.88,1.9,12.45,0.77,22.86
2009-10-11 08:00,34.02,29.4,12.33,16.68,29.65
2009-10-11 09:00,37.54,57.1,12.01,31.53,20.37
2009-10-11 10:00,39.60,81.7,12.01,39.19,5.69
2009-10-11 11:00,35.20,102.8,12.17,34.32,-7.82
2009-10-11 12:00,35.78,132.7,12.77,26.29,-24.28
2009-10-11 13:00,31.09,144.7,13.08,17.97,-25.37
2009-10-11 14:00,24.05,174.2,13.18,2.42,-23.93
2009-10-11 15:00,21.70,199.9,13.21,-7.38,-20.41
2009-10-11 16:00,25.81,241.4,13.36,-22.65,-12.37
2009-10-11 17:00,26.40,273.0,13.62,-26.36,1.39
2009-10-11 18:00,17.89,314.2,13.40,-12.84,12.46
2009-10-11 19:00,12.91,343.3,12.77,-3.70,12.36
2009-10-11 20:00,12.03,14.6,12.49,3.03,11.64
2009-10-11 21:00,24.93,67.7,12.45,23.06,9.47
2009-10-11 22:00,32.56,81.4,12.45,32.19,4.87
2009-10-11 23:00,33.44,134.1,12.86,24.00,-23.28
2009-10-12 00:00,36.08,147.5,12.96,19.39,-30.42
2009-10-12 01:00,38.13,152.8,13.08,17.45,-33.90
2009-10-12 02:00,26.40,165.4,13.02,6.64,-25.55
2009-10-12 03:00,21.41,168.2,12.96,4.36,-20.96
2009-10-12 04:00,24.93,207.3,12.93,-11.42,-22.16
2009-10-12 05:00,30.50,219.9,12.93,-19.58,-23.39
2009-10-12 06:00,29.62,246.3,13.11,-27.12,-11.91
2009-10-12 07:00,21.41,280.4,12.96,-21.06,3.86
2009-10-12 08:00,19.06,317.0,12.55,-13.01,13.93
2009-10-12 09:00,12.03,338.8,12.33,-4.36,11.21
2009-10-12 10:00,16.13,48.7,12.17,12.12,10.65
2009-10-12 11:00,22.58,67.0,12.11,20.79,8.83
2009-10-12 12:00,17.60,103.9,12.27,17.08,-4.23
2009-10-12 13:00,28.74,122.9,12.61,24.14,-15.61
2009-10-12 14:00,24.64,132.0,12.77,18.30,-16.49
2009-10-12 15:00,19.94,154.2,12.83,8.69,-17.95
2009-10-12 16:00,14.37,183.0,12.86,-0.75,-14.35
2009-10-12 17:00,21.12,242.4,13.11,-18.72,-9.78
2009-10-12 18:00,25.52,262.1,13.08,-25.28,-3.50
2009-10-12 19:00,7.33,282.9,12.71,-7.15,1.63
2009-10-12 20:00,2.35,6.9,12.74,0.28,2.33
2009-10-12 21:00,7.04,331.0,12.77,-3.41,6.16
2009-10-12 22:00,23.17,38.8,12.77,14.53,18.05
2009-10-12 23:00,28.45,69.4,12.74,26.64,9.99
2009-10-13 00:00,42.82,84.9,12.71,42.65,3.80
2009-10-13 01:00,38.42,94.1,12.74,38.33,-2.71
2009-10-13 02:00,51.03,93.7,12.67,50.93,-3.29
2009-10-13 03:00,43.70,90.2,12.64,43.70,-0.14
2009-10-13 04:00,32.26,105.3,12.64,31.12,-8.51
2009-10-13 05:00,15.25,111.6,12.61,14.18,-5.62
2009-10-13 06:00,10.27,201.3,12.61,-3.73,-9.57
2009-10-13 07:00,11.73,232.6,12.58,-9.32,-7.13
2009-10-13 08:00,10.56,264.2,12.61,-10.51,-1.06
2009-10-13 09:00,3.81,336.0,12.55,-1.55,3.48
2009-10-13 10:00,4.40,77.9,12.55,4.30,0.92
2009-10-13 11:00,4.99,94.1,12.55,4.97,-0.35
2009-10-13 12:00,8.51,53.6,12.55,6.85,5.05
2009-10-13 13:00,14.37,55.7,12.52,11.88,8.09
2009-10-13 14:00,22.29,59.6,12.58,19.22,11.28
2009-10-13 15:00,23.17,63.5,12.61,20.73,10.35
2009-10-13 16:00,13.79,120.4,12.58,11.89,-6.98
2009-10-13 17:00,10.56,86.0,12.58,10.53,0.74
2009-10-13 18:00,2.35,114.1,12.58,2.14,-0.96
2009-10-13 19:00,6.45,251.9,12.64,-6.13,-2.00
2009-10-13 20:00,11.15,208.7,12.61,-5.35,-9.78
2009-10-13 21:00,8.51,231.2,12.61,-6.63,-5.33
2009-10-13 22:00,10.27,179.5,12.58,0.09,-10.27
2009-10-13 23:00,17.01,151.0,12.52,8.24,-14.88
2009-10-14 00:00,20.53,149.6,12.49,10.39,-17.71
2009-10-14 01:00,18.77,142.6,12.45,11.41,-14.91
2009-10-14 02:00,25.52,148.2,12.36,13.45,-21.69
2009-10-14 03:00,17.30,143.3,12.36,10.35,-13.87
2009-10-14 04:00,18.48,154.5,12.33,7.95,-16.68
2009-10-14 05:00,14.66,166.5,12.36,3.43,-14.26
2009-10-14 06:00,12.91,219.9,12.36,-8.28,-9.90
2009-10-14 07:00,13.49,225.9,12.36,-9.69,-9.39
2009-10-14 08:00,9.68,296.2,12.30,-8.68,4.28
2009-10-14 09:00,12.61,277.2,12.30,-12.51,1.59
2009-10-14 10:00,11.15,350.0,12.20,-1.94,10.98
2009-10-14 11:00,14.08,24.8,12.30,5.90,12.78
2009-10-14 12:00,24.34,56.8,12.27,20.37,13.34
2009-10-14 13:00,35.20,75.4,12.27,34.06,8.86
2009-10-14 14:00,34.32,96.5,12.30,34.09,-3.89
2009-10-14 15:00,38.72,118.7,12.30,33.97,-18.57
2009-10-14 16:00,38.13,118.3,12.23,33.57,-18.08
2009-10-14 17:00,32.56,124.3,12.17,26.90,-18.34
2009-10-14 18:00,20.24,142.6,12.20,12.30,-16.07